Skip Page Navigation
NASA JPL Caltech
NASA Logo - Jet Propulsion Laboratory + View the NASA Portal
+ Center for Near-Earth Object Studies
JPL Home Earth Solar System Stars & Galaxies Technology
JPL Solar System Dynamics
BODIES ORBITS EPHEMERIDES TOOLS PHYSICAL DATA DISCOVERY FAQ SITE MAP
IMPORTANT: The SSD Announcement email list is now available. Major changes are coming in the near future, including possible hostname and/or URL changes. To be notified of such changes, subscribe to this email list.

Please visit this page for more details.


JPL Small-Body Database Browser
Search: [ help ]  
105058 (2000 KH61)
Classification: Main-belt Asteroid          SPK-ID: 2105058
Ephemeris | Orbit Diagram | Orbital Elements | Mission Design | Physical Parameters | Discovery Circumstances | Close-Approach Data ]

[ show orbit diagram ]
Orbital Elements at Epoch 2459000.5 (2020-May-31.0) TDB
Reference: JPL 18 (heliocentric ecliptic J2000)
 Element Value Uncertainty (1-sigma)   Units 
e .209462635075372 5.4941e-08  
a 3.104322752919417 2.5626e-08 au
q 2.454083128968483 1.6653e-07 au
i 18.47348138220408 5.3699e-06 deg
node 84.06614705888273 1.7251e-05 deg
peri 227.8916554628302 2.0125e-05 deg
M 186.6359066621245 1.3033e-05 deg
tp 2459962.567138920155
(2023-Jan-18.06713892)
7.7051e-05 TDB
period 1997.784912336219
5.47
2.4738e-05
6.773e-08
d
yr
n .1801995789321556 2.2313e-09 deg/d
Q 3.754562376870351 3.0994e-08 au
  Orbit Determination Parameters
   # obs. used (total)      444  
   data-arc span      9871 days (27.03 yr)  
   first obs. used      1993-01-24  
   last obs. used      2020-02-03  
   planetary ephem.      DE431  
   SB-pert. ephem.      SB431-N16  
   condition code      0  
   norm. resid. RMS      .62053  
   source      ORB  
   producer      Otto Matic  
   solution date      2020-Feb-24 02:15:48  

Additional Information
 Earth MOID = 1.47747 au 
 Jupiter MOID = 1.61292 au 
 T_jup = 3.109 
[ show covariance matrix ]

Ephemeris | Orbit Diagram | Orbital Elements | Mission Design | Physical Parameters | Discovery Circumstances | Close-Approach Data ]

Physical Parameter Table
Parameter Symbol Value Units Sigma Reference Notes
absolute magnitude H 14.7   n/a MPO417534  

105058 (2000 KH61)          Discovered 2000-May-25 by LONEOS at Anderson Mesa
Reference: 20051019/Numbers.arcLast Updated: 2005-10-26

[ show close-approach data ]
Ephemeris | Orbit Diagram | Orbital Elements | Mission Design | Physical Parameters | Discovery Circumstances | Close-Approach Data ]
ABOUT SSD CREDITS/AWARDS PRIVACY/COPYRIGHT GLOSSARY LINKS
FirstGov 2020-Apr-08 19:56 UT
(server date/time)  
NASA Home Page
Site Manager:   Ryan S. Park
Webmaster  Alan B. Chamberlin